Regional Weather Roundup
Issued by NWS State College, PA

Home | Current Version | Previous Version | Text Only | Print | Product List | Glossary On
Versions: 1 2 3 4 5 6 7 8 9 10 11 12 13 14 15 16 17 18 19 20 21 22 23 24 25 26 27 28 29 30 31 32 33 34 35 36 37 38 39 40 41 42 43 44 45 46 47 48 49 50
000
ASUS41 KCTP 222103
RWRCTP

REGIONAL WEATHER ROUNDUP
NATIONAL WEATHER SERVICE STATE COLLEGE PA
400 PM EST SAT NOV 22 2014

Note: "fair" indicates few or no clouds below 12,000 feet with no
significant weather and/or obstructions to visibility.

* = STATION THAT DOES NOT REPORT PRECIPITATION /E.G. RAIN...SNOW...ETC/
    THUNDER OR FOG.

PAZ002>004-007>009-013>016-020>023-029>032-222200-
WESTERN PENNSYLVANIA

CITY           SKY/WX    TMP DP  RH WIND       PRES   REMARKS
ERIE           CLOUDY    43  36  76 S16G25    30.03F
MEADVILLE      CLOUDY    37  34  89 S9        30.08S FOG
FRANKLIN*      CLOUDY    36  32  87 S12G21    30.12F
NEW CASTLE       N/A     39  33  79 CALM      30.14F
BEAVER COUNTY  NOT AVBL
BUTLER*        CLOUDY    39  30  70 S8        30.17S
PITTSBURGH INT CLOUDY    45  31  58 SW8       30.16S
PITTSBURGH     CLOUDY    45  24  43 S9        30.16S
INDIANA*       CLOUDY    41  30  65 SW7       30.21S
LATROBE        CLOUDY    46  25  42 S10       30.20F
WASHINGTON CO* CLOUDY    48  30  49 S6        30.19S
$$

PAZ004>006-010>012-017>019-024>028-033>037-041-042-045-046-049>053-222200-
CENTRAL PENNSYLVANIA

CITY           SKY/WX    TMP DP  RH WIND       PRES   REMARKS
BRADFORD       FOG       35  33  92 SW10G18   30.08S VSB 1/2
DUBOIS         CLOUDY    35  32  88 SW7       30.13R
CLEARFIELD     LGT RAIN  33  29  85 SW6       30.16F
JOHNSTOWN      CLOUDY    42  28  57 SW12      30.17S
ALTOONA        CLOUDY    45  27  49 SW9       30.20S
STATE COLLEGE  LGT RAIN  32  23  69 W5        30.19F
WILLIAMSPORT   LGT RAIN  35  19  52 E3        30.23F
SELINSGROVE    CLOUDY    39  15  37 VRB7G16   30.25F
FT INDIANTOWN  CLOUDY    40  15  35 SW5       30.27F
CAPITAL CITY   CLOUDY    43  15  32 SW6       30.28F
HARRISBURG     CLOUDY    41  17  38 VRB6      30.27F
YORK           CLOUDY    43  15  32 SW3       30.27F
$$

PAZ038>040-043-044-047-048-054-055-060>062-067>071-222200-
EASTERN PENNSYLVANIA

CITY           SKY/WX    TMP DP  RH WIND       PRES   REMARKS
SCRANTON       CLOUDY    40  11  30 SW10      30.19S
MOUNT POCONO   CLOUDY    35  11  36 SW9       30.17S
ALLENTOWN      CLOUDY    42  14  32 SW10      30.27F
QUAKERTOWN*    CLOUDY    41  18  38 SW12      30.28F
READING        CLOUDY    43  15  32 S8        30.27F
LANCASTER      CLOUDY    42  15  33 S7        30.28F
COATESVILLE    CLOUDY    39  19  45 S5        30.28F
POTTSTOWN      CLOUDY    40  17  39 S8        30.30F
BLUE BELL      CLOUDY    43  21  42 S9        30.28F
DOYLESTOWN     CLOUDY    41  18  39 SW8       30.27F
WILLOW GROVE   NOT AVBL
NORTH PHILA    CLOUDY    45  15  30 SW13G22   30.32F
PHILADELPHIA   MOCLDY    45  16  31 SW13      30.32F
$$


USA.gov is the U.S. government's official web portal to all federal, state and local government web resources and services.